Flag for U.S.A. Weather past 2 weeks in Carson City, Nevada, U.S.A.

Now
66 °F

Clear.


Feels Like: 66 °F
Forecast: 43 / 68 °F
Wind: No wind

Location: Reno Tahoe International Airport

Current Time: Oct 19, 2014 at 9:26:09 PM

Latest Report: Oct 19, 2014 at 7:55 PM


Visibility: 10 mi

Pressure: 29.88 "Hg

Humidity: 29%

Dew point: 33 °F

Location of Carson CityLocation

Historic Weather in Carson City — Graph

°F

Carson City temperature yesterday

Maximum temperature yesterday: 72 °F (at 4:55 PM)
Minimum temperature yesterday: 42 °F (at 6:55 AM)
Average temperature yesterday: 55 °F

Past Weeks' High & Low Weather Summary

 TemperatureHumidityPressure
High86 °F (Oct 6, 3:55 PM)73% (Oct 16, 5:55 AM)30.23 "Hg (Oct 16, 5:55 AM)
Low41 °F (Oct 13, 6:55 AM)9% (Oct 8, 2:55 PM)29.60 "Hg (Oct 14, 11:55 PM)
Average61 °F35%29.97 "Hg
* Reported Oct 4 7:55 PM — Oct 19 7:55 PM, Carson City, Weather by CustomWeather, © 2014

Note: Actual official high and low records may vary slightly from our data, if they occured in-between our weather recording intervals... More about our weather records

Advertising

Carson City weather history for previous 24 hours

 ConditionsComfort  
Time TempWeatherWind HumidityBarometerVisibility
7:55 PM
Oct 19
66 °FClear.No wind29%29.88 "Hg10 mi
6:55 PM69 °FSunny.8 mph26%29.85 "Hg10 mi
5:55 PM73 °FSunny.10 mph20%29.83 "Hg10 mi
4:55 PM77 °FSunny.9 mph15%29.80 "Hg10 mi
3:55 PM79 °FSunny.13 mph14%29.81 "Hg10 mi
2:55 PM78 °FSunny.No wind15%29.82 "Hg10 mi
1:55 PM74 °FSunny.No wind17%29.85 "Hg10 mi
12:55 PM70 °FSunny.No wind22%29.89 "Hg10 mi
11:55 AM64 °FSunny.No wind27%29.94 "Hg10 mi
10:55 AM58 °FSunny.No wind36%29.96 "Hg10 mi
9:55 AM51 °FSunny.No wind48%29.99 "Hg10 mi
8:55 AM45 °FSunny.No wind60%29.99 "Hg10 mi
7:55 AM42 °FClear.No wind65%29.98 "Hg10 mi
6:55 AM42 °FClear.No wind65%29.97 "Hg10 mi
5:55 AM42 °FClear.No wind65%29.95 "Hg10 mi
4:55 AM44 °FClear.No wind63%29.93 "Hg10 mi
3:55 AM43 °FClear.No wind62%29.93 "Hg10 mi
2:55 AM45 °FClear.3 mph60%29.94 "Hg10 mi
1:55 AM47 °FClear.No wind56%29.93 "Hg10 mi
12:55 AM49 °FClear.No wind48%29.94 "Hg10 mi
11:55 PM
Oct 18
52 °FClear.No wind43%29.94 "Hg10 mi
10:55 PM53 °FClear.3 mph43%29.95 "Hg10 mi
9:55 PM56 °FClear.3 mph39%29.96 "Hg10 mi
Weather by CustomWeather, © 2014

See weather overviewHow to use our weather pages